Time,TemperatureF,DewpointF,PressureIn,WindDirection,WindDirectionDegrees,WindSpeedMPH,WindSpeedGustMPH,Humidity,HourlyPrecipIn,Conditions,Clouds,dailyrainin,SoftwareType,DateUTC
2018-05-28 00:02:00,64.2,61.2,29.64,NNW,342,0.0,0.0,90,0.00,,,0.00,meteobridge,2018-05-28 04:02:00,
2018-05-28 00:08:00,64.0,61.3,29.64,NNW,342,0.0,0.0,91,0.00,,,0.00,meteobridge,2018-05-28 04:08:00,
2018-05-28 00:13:00,64.0,61.3,29.64,NNW,342,0.0,0.0,91,0.00,,,0.00,meteobridge,2018-05-28 04:13:00,
2018-05-28 00:19:00,63.9,61.2,29.65,NNW,342,0.0,0.0,91,0.00,,,0.00,meteobridge,2018-05-28 04:19:00,
2018-05-28 00:24:00,63.9,61.2,29.65,NNW,342,0.0,0.0,91,0.00,,,0.00,meteobridge,2018-05-28 04:24:00,
2018-05-28 00:30:00,63.7,61.0,29.65,NNW,342,0.0,0.0,91,0.00,,,0.00,meteobridge,2018-05-28 04:30:00,
2018-05-28 00:35:00,63.5,61.2,29.65,NNW,342,0.0,0.0,92,0.00,,,0.00,meteobridge,2018-05-28 04:35:00,
2018-05-28 00:41:00,63.5,61.2,29.65,NNW,342,0.0,0.0,92,0.00,,,0.00,meteobridge,2018-05-28 04:41:00,
2018-05-28 00:46:00,63.7,61.3,29.66,NNW,342,0.0,0.0,92,0.00,,,0.00,meteobridge,2018-05-28 04:46:00,
2018-05-28 00:52:00,63.7,61.3,29.66,NNW,342,0.0,0.0,92,0.00,,,0.00,meteobridge,2018-05-28 04:52:00,
2018-05-28 00:57:00,63.7,61.3,29.65,NNW,342,0.0,0.0,92,0.00,,,0.00,meteobridge,2018-05-28 04:57:00,
2018-05-28 01:03:00,63.7,61.3,29.65,NNW,342,0.0,0.0,92,0.00,,,0.00,meteobridge,2018-05-28 05:03:00,
2018-05-28 01:08:00,63.7,61.3,29.65,NNW,342,0.0,0.0,92,0.00,,,0.00,meteobridge,2018-05-28 05:08:00,
2018-05-28 01:13:00,63.7,61.3,29.65,NNW,342,0.0,0.0,92,0.00,,,0.00,meteobridge,2018-05-28 05:13:00,
2018-05-28 01:19:00,63.5,61.2,29.65,NNW,342,0.0,0.0,92,0.00,,,0.00,meteobridge,2018-05-28 05:19:00,
2018-05-28 01:24:00,63.3,61.0,29.65,NNW,342,0.0,0.0,92,0.00,,,0.00,meteobridge,2018-05-28 05:24:00,
2018-05-28 01:29:00,63.3,61.0,29.65,NNW,342,0.0,0.0,92,0.00,,,0.00,meteobridge,2018-05-28 05:29:00,
2018-05-28 01:35:00,63.1,60.8,29.65,NNW,342,0.0,0.0,92,0.00,,,0.00,meteobridge,2018-05-28 05:35:00,
2018-05-28 01:40:00,63.0,60.6,29.65,NNW,342,0.0,0.0,92,0.00,,,0.00,meteobridge,2018-05-28 05:40:00,
2018-05-28 01:46:00,63.1,61.2,29.65,NNW,342,0.0,0.0,93,0.00,,,0.00,meteobridge,2018-05-28 05:46:00,
2018-05-28 01:51:00,63.1,61.2,29.66,NNW,342,0.0,0.0,93,0.00,,,0.00,meteobridge,2018-05-28 05:51:00,
2018-05-28 01:57:00,63.1,61.2,29.66,NNW,342,0.0,0.0,93,0.00,,,0.00,meteobridge,2018-05-28 05:57:00,
2018-05-28 02:02:00,63.1,61.2,29.66,NNW,342,0.0,0.0,93,0.00,,,0.00,meteobridge,2018-05-28 06:02:00,
2018-05-28 02:08:00,63.1,61.2,29.66,NNW,342,0.0,0.0,93,0.00,,,0.00,meteobridge,2018-05-28 06:08:00,
2018-05-28 02:13:00,63.0,61.0,29.66,NNW,342,0.0,0.0,93,0.00,,,0.00,meteobridge,2018-05-28 06:13:00,
2018-05-28 02:18:00,62.6,60.6,29.66,NNW,342,0.0,0.0,93,0.00,,,0.00,meteobridge,2018-05-28 06:18:00,
2018-05-28 02:24:00,62.6,60.6,29.66,NNW,342,0.0,0.0,93,0.00,,,0.00,meteobridge,2018-05-28 06:24:00,
2018-05-28 02:29:00,61.9,59.5,29.66,NNW,342,0.0,0.0,92,0.00,,,0.00,meteobridge,2018-05-28 06:29:00,
2018-05-28 02:35:00,61.2,58.8,29.65,NNW,342,0.0,0.0,92,0.00,,,0.00,meteobridge,2018-05-28 06:35:00,
2018-05-28 02:40:00,61.5,59.7,29.66,NNW,342,0.0,0.0,94,0.00,,,0.00,meteobridge,2018-05-28 06:40:00,
2018-05-28 02:45:00,61.5,59.7,29.66,NNW,342,0.0,0.0,94,0.00,,,0.00,meteobridge,2018-05-28 06:45:00,
2018-05-28 02:51:00,61.3,59.5,29.65,NNW,342,0.0,0.0,94,0.00,,,0.00,meteobridge,2018-05-28 06:51:00,
2018-05-28 02:56:00,61.3,59.5,29.65,NNW,342,0.0,0.0,94,0.00,,,0.00,meteobridge,2018-05-28 06:56:00,
2018-05-28 03:02:00,61.2,59.4,29.65,NNW,342,0.0,0.0,94,0.00,,,0.00,meteobridge,2018-05-28 07:02:00,
2018-05-28 03:07:00,61.0,59.2,29.65,NNW,342,0.0,0.0,94,0.00,,,0.00,meteobridge,2018-05-28 07:07:00,
2018-05-28 03:13:00,60.6,59.2,29.65,NNW,342,0.0,0.0,95,0.00,,,0.00,meteobridge,2018-05-28 07:13:00,
2018-05-28 03:18:00,60.6,59.2,29.65,NNW,342,0.0,0.0,95,0.00,,,0.00,meteobridge,2018-05-28 07:18:00,
2018-05-28 03:24:00,60.4,59.0,29.65,NNW,342,0.0,0.0,95,0.00,,,0.00,meteobridge,2018-05-28 07:24:00,
2018-05-28 03:29:00,60.4,59.0,29.65,NNW,342,0.0,0.0,95,0.00,,,0.00,meteobridge,2018-05-28 07:29:00,
2018-05-28 03:35:00,60.1,58.6,29.65,NNW,342,0.0,0.0,95,0.00,,,0.00,meteobridge,2018-05-28 07:35:00,
2018-05-28 03:40:00,59.9,58.5,29.66,NNW,342,0.0,0.0,95,0.00,,,0.00,meteobridge,2018-05-28 07:40:00,
2018-05-28 03:45:00,59.9,58.5,29.66,NNW,342,0.0,0.0,95,0.00,,,0.00,meteobridge,2018-05-28 07:45:00,
2018-05-28 03:51:00,60.1,59.0,29.66,NNW,342,0.0,0.0,96,0.00,,,0.00,meteobridge,2018-05-28 07:51:00,
2018-05-28 03:57:00,60.1,59.0,29.66,NNW,342,0.0,0.0,96,0.00,,,0.00,meteobridge,2018-05-28 07:57:00,
2018-05-28 04:02:00,60.1,59.0,29.66,NNW,342,0.0,0.0,96,0.00,,,0.00,meteobridge,2018-05-28 08:02:00,
2018-05-28 04:07:00,59.9,58.8,29.66,NNW,342,0.0,0.0,96,0.00,,,0.00,meteobridge,2018-05-28 08:07:00,
2018-05-28 04:13:00,59.7,58.6,29.66,NNW,342,0.0,0.0,96,0.00,,,0.00,meteobridge,2018-05-28 08:13:00,
2018-05-28 04:18:00,59.5,58.5,29.66,NNW,342,0.0,0.0,96,0.00,,,0.00,meteobridge,2018-05-28 08:18:00,
2018-05-28 04:24:00,59.5,58.5,29.66,NNW,342,0.0,0.0,96,0.00,,,0.00,meteobridge,2018-05-28 08:24:00,
2018-05-28 04:29:00,59.5,58.5,29.66,NNW,342,0.0,0.0,96,0.00,,,0.00,meteobridge,2018-05-28 08:29:00,
2018-05-28 04:35:00,59.5,58.5,29.67,NNW,342,0.0,0.0,96,0.00,,,0.00,meteobridge,2018-05-28 08:35:00,
2018-05-28 04:40:00,59.5,58.5,29.67,NNW,342,0.0,0.0,96,0.00,,,0.00,meteobridge,2018-05-28 08:40:00,
2018-05-28 04:45:00,59.5,58.5,29.67,NNW,342,0.0,0.0,96,0.00,,,0.00,meteobridge,2018-05-28 08:45:00,
2018-05-28 04:51:00,59.5,58.6,29.67,NNW,342,0.0,0.0,97,0.00,,,0.00,meteobridge,2018-05-28 08:51:00,
2018-05-28 04:56:00,59.4,58.5,29.67,NNW,342,0.0,0.0,97,0.00,,,0.00,meteobridge,2018-05-28 08:56:00,